Regional Weather Roundup
Issued by NWS Kansas City/Pleasant Hill, MO

Home | Current Version | Previous Version | Text Only | Print | Product List | Glossary On
Versions: 1 2 3 4 5 6 7 8 9 10 11 12 13 14 15 16 17 18 19 20 21 22 23 24 25 26 27 28 29 30 31 32 33 34 35 36 37 38 39 40 41 42 43 44 45 46 47 48 49 50
286
ASUS43 KEAX 221610
RWREAX

WEATHER ROUNDUP FOR EASTERN KANSAS AND NORTHWEST MISSOURI
NATIONAL WEATHER SERVICE KANSAS CITY/PLEASANT HILL MO
1100 AM CDT FRI JUL 22 2016

KSZ040-057-103>105-MOZ028-029-037-043-221700-
...KANSAS CITY METROPOLITAN AREA...

CITY           SKY/WX    TMP DP  RH WIND       PRES   REMARKS
K.C. INTL      MOSUNNY   87  75  67 SE21      30.05S HX  96
K.C. DOWNTOWN  MOSUNNY   88  74  63 SE16G24   30.04R HX  96
LEES SUMMIT    CLOUDY    83  73  72 E17       30.09R
OLATHE - IXD   SUNNY     92  73  53 S15       30.04F HX 100
OLATHE - OJC   MOSUNNY   87  73  62 SE9       30.06R HX  94
LAWRENCE       SUNNY     92  74  55 S12       30.01F HX 101

$$

MOZ001>008-011>017-020>025-030>033-038>040-044>046-053-054-221700-
...NORTHERN AND CENTRAL MISSOURI...

CITY           SKY/WX    TMP DP  RH WIND       PRES   REMARKS
ST. JOSEPH     CLOUDY    86  75  69 SE16G24   30.03R HX  95
MOSBY          CLOUDY    81  70  69 SE13G21   30.07S
WHITEMAN AFB   PTSUNNY   82  71  67 SE13G21   30.11S
CLINTON        CLOUDY    82  73  74 SE20      30.12S
SEDALIA        MOSUNNY   83  69  62 SE20      30.14F
WARSAW         NOT AVBL
CHILLICOTHE      N/A     82  71  69 S10       30.08S
KIRKSVILLE     CLOUDY    75  70  84 SW13G18   30.07F

$$

MOZ041-047>049-056>058-063>065-088>090-097-221700-
...EASTERN AND SOUTHERN MISSOURI...

CITY           SKY/WX    TMP DP  RH WIND       PRES   REMARKS
ST. LOUIS INTL CLOUDY    76  70  82 W10       30.04F
SPIRIT OF STL  CLOUDY    74  72  93 SW12      30.04F
COLUMBIA       CLOUDY    74  70  87 SE8       30.13F
JEFFERSON CITY CLOUDY    76  68  76 SE12      30.14F
ROLLA          CLOUDY    78  69  73 NE6       30.16F
OSAGE BEACH    CLOUDY    79  70  74 E8        30.18R
SPRINGFIELD    SUNNY     91  72  53 W7        30.13R HX  98
BRANSON        SUNNY     90  73  58 NW6       30.15R HX  98
JOPLIN         SUNNY     90  74  59 SW12      30.10S HX  99
WEST PLAINS    SUNNY     93  72  50 W9        30.15R HX 101

$$

IAZ060-094-KSZ022-034>040-054-083-096-NEZ052-066-093-221700-
...KANSAS...SOUTHEAST NEBRASKA AND IOWA...

CITY           SKY/WX    TMP DP  RH WIND       PRES   REMARKS
TOPEKA         SUNNY     92  71  50 S9        30.00S HX  98
MANHATTAN      SUNNY     95  70  44 S14       29.97S HX 101
EMPORIA        SUNNY     93  69  45 S18       30.03S HX  98
CHANUTE        SUNNY     90  74  59 S10       30.07R HX  99
WICHITA        MOSUNNY   94  66  39 S14       30.02S HX  97
OMAHA          MOSUNNY   88  73  61 SE13      29.94R HX  95
LINCOLN        SUNNY     89  72  56 S8        29.94S HX  96
FALLS CITY     SUNNY     91  74  57 SE9       29.98R HX 100
LAMONI         CLOUDY    78  71  79 S15G22    30.05R
DES MOINES     CLOUDY    81  73  76 S15       30.01R

$$





USA.gov is the U.S. government's official web portal to all federal, state and local government web resources and services.